RH
22 31 35 31 36 43 52 58 62 53 60 69 64 69 53 43 41 38 31 31 35 37 45 50 44 52 54 56 66 72 92 76 86 96 88 83 69 67 67 64 60 50 41 40
30 39 33 40 45 50 59 65 62 56 64 70 65 53 51 48 44 42 40 26 31 37 43 53 46 49 51 50 65 68 74 76 88 96 88 78 75 66 68 64 62 56 48 39
42 43 41 45 50 58 64 71 71 78 68 70 68 62 62 61 61 60 47 30 27 38 50 50 49 45 50 46 55 63 67 88 74 81 98 90 84 80 72 69 65 63 54 46
43 46 49 52 59 65 73 70 74 75 77 84 76 78 62 77 84 74 68 46 25 30 58 53 51 50 51 42 47 62 67 94 90 90 94 86 77 80 73 67 63 65 56 48
49 50 55 57 64 69 75 70 61 68 75 76 70 95 91 79 83 82 66 49 42 46 51 59 49 50 45 51 48 57 71 90 93 84 95 82 87 84 79 75 67 68 57 54
50 51 56 64 69 72 71 67 55 59 69 89 85 92 93 83 85 78 74 58 44 44 56 54 47 52 50 46 47 55 78 88 99 91 97 92 88 90 86 88 73 70 61 57
48 57 62 67 69 69 79 77 74 72 80 83 75 80 93 92 85 82 73 70 55 44 62 62 53 60 53 49 45 53 71 92 89 96 97 89 83 96 91 83 76 71 65 55
64 70 66 70 79 90 88 89 98 98 80 75 68 97 97 87 84 81 80 84 68 53 48 66 54 53 57 51 48 48 72 83 96 98 90 95 99 87 95 90 77 77 69 59
75 66 64 73 76 86 89 93 79 97 83 92 76 84 94 81 69 78 81 89 64 61 68 59 53 47 57 52 48 48 65 85 94 84 92 98 97 93 86 87 89 85 79 74
63 77 63 69 76 94 85 85 90 90 98 91 61 83 96 84 83 86 91 87 65 61 71 63 55 49 52 54 51 49 62 84 93 98 97 99 97 95 83 87 86 86 83 83
57 76 66 72 79 95 93 96 94 91 94 98 95 84 96 95 97 97 89 75 69 67 74 68 56 58 55 54 54 53 71 88 95 98 97 96 96 98 98 87 85 91 87 90
56 78 82 73 89 96 94 98 98 97 95 95 91 87 86 98 98 98 91 80 78 87 77 87 81 60 61 63 53 55 73 91 98 88 98 100 95 98 98 98 99 96 95 94
60 75 80 74 88 90 97 96 95 94 98 97 98 90 91 97 97 97 89 95 89 90 90 93 90 82 75 66 57 65 68 79 89 98 99 97 95 98 99 91 98 99 97 98
52 66 86 97 96 95 98 97 95 98 98 96 94 96 94 94 97 92 84 86 98 86 87 89 88 83 78 68 60 66 68 77 91 97 97 98 95 98 99 98 96 96 97 96
53 65 68 75 85 95 97 97 97 98 98 98 94 98 91 97 98 88 97 94 92 80 88 83 91 80 77 79 71 66 70 76 90 96 96 96 96 98 97 97 97 97 96 96
49 62 60 76 84 93 96 90 95 97 98 97 95 94 97 96 97 90 96 90 92 97 86 85 77 81 81 82 81 70 70 74 85 91 98 92 94 91 94 95 92 97 97 98
52 56 61 75 74 78 95 94 95 97 98 96 91 97 97 96 97 95 86 87 95 95 98 83 79 87 85 82 82 74 57 71 85 90 97 89 90 92 91 96 95 96 98 99
52 53 57 74 74 94 92 83 82 97 99 98 96 97 97 93 94 97 95 87 90 96 95 95 87 95 87 82 81 75 60 68 85 86 90 93 91 88 92 92 92 92 93 93
47 49 63 76 74 89 92 77 74 97 96 95 98 97 97 96 88 87 91 91 97 91 89 87 87 88 85 81 80 77 72 84 84 90 81 84 87 85 82 81 80 78 81 80
44 46 61 61 74 93 86 71 72 79 97 91 98 98 97 97 94 92 85 83 85 77 74 74 76 77 82 78 76 82 78 82 79 75 70 77 83 79 78 74 73 73 67 67
55 53 59 54 66 79 73 68 69 77 93 97 97 97 97 97 97 97 97 94 91 89 84 79 78 76 68 73 77 77 79 82 79 77 76 76 79 76 72 72 72 70 65 59
66 66 57 53 63 70 63 68 79 87 93 98 98 97 98 97 97 97 96 96 95 95 93 83 79 76 75 75 80 80 79 77 79 75 70 71 70 62 67 67 68 72 68 60
62 61 66 60 55 52 60 69 75 81 92 97 97 97 97 97 97 97 97 97 97 97 97 90 85 85 78 76 80 84 80 83 82 79 74 72 72 71 66 62 61 59 58 59
55 55 59 53 49 49 53 60 67 80 89 92 97 98 96 96 93 93 97 97 97 98 98 93 98 97 85 80 79 82 82 83 81 80 79 73 73 73 72 70 67 61 58 58
56 54 53 51 48 45 47 51 67 76 85 88 91 96 92 89 86 84 80 82 86 89 90 96 98 92 91 93 86 88 88 84 86 86 83 79 76 73 70 68 72 72 69 70
55 58 57 56 49 49 46 50 65 79 83 88 86 89 91 86 81 77 74 70 69 70 73 88 91 94 98 98 97 93 93 93 93 88 87 86 81 79 77 77 78 75 77 80